Location: Wonder Lake State Park
(41.4960°N, 73.6562°W)
Time: 21:02:21
(UTC-04:00)

Daily predictions for brighter satellites

Satellite Brightness Start Highest point End
(mag) Time Altitude Azimuth Time Altitude Azimuth Time Altitude Azimuth
ERS-1 Rocket 3.2 20:44:24 10° SSE 20:49:20 58° ENE 20:54:17 10° N
SJ-11-01 4.5 20:45:08 10° SSE 20:49:47 58° ENE 20:54:27 10° N
Cosmos 1869 Rocket 4.1 20:46:24 10° SSW 20:50:46 63° W 20:55:07 10° N
H-2A R/B 2.8 20:48:08 10° SE 20:52:07 36° ENE 20:56:02 10° N
Cosmos 1356 Rocket 3.9 20:49:36 10° SSE 20:53:35 43° E 20:57:38 10° NNE
ALOS 3.3 20:52:07 10° S 20:56:37 48° W 21:01:10 10° NNW
Resurs 01 Rocket 4.4 20:54:12 10° SW 20:57:04 17° W 20:59:57 10° NW
Cosmos 389 Rocket 4.4 20:54:29 10° NNW 20:57:33 30° W 21:00:38 10° SSW
ATLAS 5 CENTAUR R/B 2.8 20:53:10 10° NNW 20:59:00 53° NE 21:05:14 10° SE
USA 234 4.3 20:59:58 10° ENE 21:04:47 22° ESE 21:09:34 10° S
Cosmos 2278 Rocket 3.8 21:02:23 10° SE 21:05:23 15° E 21:08:23 10° ENE
Sich 1 Rocket 4.5 21:06:15 10° SSE 21:10:18 32° E 21:14:22 10° NNE
PSLV R/B 3.3 21:07:10 10° W 21:10:37 75° S 21:13:55 11° ESE
Meteor 2-3 Rocket 4.0 21:07:23 10° SSW 21:13:00 75° W 21:18:38 10° N
Okean 1-7 4.2 21:09:19 10° NNW 21:13:24 44° W 21:17:29 10° SSW
Abrixas rocket 2.8 21:10:49 10° WNW 21:14:09 50° SW 21:16:55 14° SE
CZ-4 DEB 4.1 21:13:35 10° S 21:16:34 39° W 21:19:35 10° NNW
Cosmos 1844 Rocket 3.1 21:13:28 10° S 21:18:43 40° ESE 21:23:58 10° NE
Cosmos 2056 Rocket 3.5 21:13:51 10° S 21:18:56 60° ESE 21:24:00 10° NNE
Meteor 1-27 Rocket 4.3 21:14:37 10° N 21:19:51 39° ENE 21:24:14 14° SE
Cosmos 1674 Rocket 3.8 21:16:25 10° N 21:20:49 54° E 21:24:53 12° SSE
Cosmos 1371 Rocket 4.0 21:15:34 10° SSW 21:20:53 86° ESE 21:26:13 10° NNE
Cosmos 1825 3.7 21:19:37 14° SE 21:21:29 20° E 21:24:18 10° NE
Cosmos 1340 Rocket 3.6 21:19:15 10° SSW 21:23:09 53° WNW 21:27:06 10° N
Cosmos 2082 Rocket 4.4 21:20:59 10° NNE 21:23:09 12° NE 21:25:19 10° ENE
Cosmos 1939 Rocket 2.9 21:22:06 10° S 21:25:57 78° W 21:29:52 10° NNW
Cosmos 1461 4.0 21:21:48 10° SW 21:26:23 53° NW 21:30:51 10° NNE
Atlas Centaur 2 2.9 21:26:38 10° SSW 21:28:42 14° S 21:29:21 14° SSE
Cosmos 1782 2.8 21:25:28 10° N 21:29:29 66° E 21:32:54 14° SSE
Cosmos 2263 Rocket 4.0 21:28:26 10° WSW 21:33:35 35° WNW 21:38:45 10° N
CENTAUR R/B 3.3 21:28:12 10° NW 21:36:03 75° WSW 21:43:29 14° SSE
COSMOS 2487 4.4 21:35:37 10° NNE 21:38:14 19° ENE 21:39:40 15° E
MetOp-A 4.2 21:35:01 14° SSE 21:39:34 70° ENE 21:44:54 10° N
Cosmos 2154 Rocket 4.1 21:33:53 10° S 21:39:57 58° E 21:46:02 10° NNE
SL-27 R/B 2.5 21:36:40 10° NNW 21:40:20 75° ENE 21:42:35 22° SSE
YAOGAN 6 2.7 21:40:07 22° SE 21:42:08 54° ENE 21:45:35 10° N
SL-8 R/B 3.6 21:37:45 10° SW 21:42:34 82° SSE 21:47:24 10° ENE
Cosmos 1408 3.3 21:40:58 23° SE 21:42:36 34° E 21:45:56 10° NNE
NOSS 2-2 (D) 3.6 21:40:16 10° SW 21:44:23 81° NW 21:49:11 10° NNE
Coronas F rocket 3.4 21:43:00 10° SW 21:45:20 27° WNW 21:47:41 10° NNW
Cosmos 2184 Rocket 4.4 21:41:08 10° SSW 21:47:13 63° W 21:53:22 10° N
deb Chang Zheng 4 4.2 21:43:21 10° N 21:47:41 58° WNW 21:52:01 10° SSW
COS B Rocket 3.3 21:43:44 10° N 21:48:02 74° E 21:50:52 18° S
Cosmos 1975 Rocket 3.9 21:44:27 10° N 21:48:24 33° ENE 21:50:14 24° ESE
SL-08 RB Rocket 4.4 21:46:49 22° SE 21:49:15 38° ENE 21:53:32 10° N
Cosmos 1606 2.7 21:48:09 10° N 21:52:05 72° E 21:54:19 24° SSE
Okean 3 3.8 21:51:34 10° N 21:55:45 48° ENE 21:57:39 28° SE
Cosmos 1908 Rocket 3.5 21:53:55 13° S 21:57:46 82° E 22:02:13 10° N
H-2A R/B 3.1 21:56:03 21° ESE 21:58:46 33° ENE 22:03:29 10° N
NOSS 2-2 (C) 4.2 21:55:03 10° SW 21:59:06 58° NW 22:03:53 10° NNE
Envisat 3.9 21:54:21 10° S 21:59:13 46° W 22:04:08 10° NNW
USA 245 2.8 21:58:30 39° SE 21:59:24 64° ENE 22:02:55 10° N
Cosmos 1242 Rocket 3.6 21:59:20 10° NNE 22:02:35 30° ENE 22:03:15 28° E
Cosmos 1378 Rocket 3.4 22:01:32 10° N 22:05:52 83° E 22:08:06 28° S
CZ-4 SHROUD 4.1 22:08:15 25° SSW 22:09:40 44° W 22:12:40 10° NNW
TIMED 4.4 22:06:09 14° SSW 22:09:55 79° ESE 22:14:19 10° NNE
Intercosmos 25 3.4 22:12:07 39° SE 22:12:59 48° E 22:16:10 10° NNE
SPOT 1/Viking Rocket 3.5 22:10:27 24° SSE 22:13:37 86° WSW 22:18:52 10° NNW
ERBS 3.3 22:12:37 10° WNW 22:15:50 36° SW 22:16:36 31° SSW
Cosmos 407 Rocket 3.9 22:13:34 10° NNW 22:18:45 60° WSW 22:21:52 24° S
Cosmos 1238 Rocket 2.5 22:18:04 10° NNW 22:21:07 67° W 22:21:59 44° SSW
Cosmos 1452 Rocket 3.5 22:16:58 10° SSW 22:22:14 85° WNW 22:27:33 10° NNE
Landsat 7 3.9 22:21:42 37° SE 22:23:25 61° ENE 22:28:08 10° N
SPOT 5 4.2 22:19:21 13° SSW 22:23:41 39° W 22:28:42 10° NNW
H-2A R/B 4.3 22:25:01 10° SW 22:28:13 20° W 22:31:22 10° NW
BREEZE-M TANK 4.0 22:18:11 10° W 22:32:39 63° N 22:35:56 14° ENE
Cosmos 2084 3.0 22:32:17 60° SSE 22:32:42 67° SE 22:36:31 10° NE
Cosmos 614 Rocket 4.4 22:30:13 10° N 22:35:08 47° ENE 22:36:32 37° ESE
Spot 4 4.5 22:34:20 36° ESE 22:35:33 43° ENE 22:40:09 10° N
Cosmos 2218 Rocket 4.1 22:32:39 32° SSE 22:35:37 62° E 22:41:57 10° NNE
Cosmos 1140 Rocket 3.4 22:30:48 10° NNW 22:35:57 74° ENE 22:37:36 44° SE
Terra 1.9 22:37:58 45° SE 22:39:11 61° ENE 22:43:53 10° N
ARGOS 3.6 22:38:34 27° SSW 22:41:21 57° W 22:46:38 10° NNW
DMSP B5D2-2 4.1 22:36:40 10° NNE 22:41:49 57° E 22:43:08 44° SSE
ATLAS 5 CENTAUR R/B 3.7 22:38:18 10° NW 22:43:34 31° WSW 22:46:55 19° SSW
DELTA 2 DEB (DPAF) 4.1 22:42:46 50° S 22:43:54 84° WSW 22:48:24 10° NNW
Okean 2 Rocket 3.4 22:42:45 30° SSW 22:44:48 63° W 22:49:11 10° N
USA 234 3.1 22:41:47 10° NE 22:48:21 85° SE 22:54:53 10° SW
Cosmos 2278 Rocket 2.3 22:43:31 12° SSW 22:48:43 76° WNW 22:54:26 10° NNE
CZ-4B R/B 4.5 22:45:53 10° N 22:50:38 44° WNW 22:54:54 12° SW
Cosmos 1727 Rocket 4.0 22:47:25 10° N 22:53:34 64° E 22:55:27 44° SE
CZ-4C R/B 3.5 22:54:26 57° SW 22:54:47 60° W 22:58:44 10° NNW
Cosmos 1833 Rocket 3.4 22:50:26 10° NNW 22:55:47 42° ENE 22:57:19 35° E
Cosmos 1850 Rocket 3.9 22:50:46 10° NNW 22:56:06 84° ENE 22:57:23 54° SSE
Cosmos 1825 4.2 22:54:31 14° SW 22:56:57 25° WNW 23:00:10 10° NNW
Cosmos 1959 Rocket 4.4 22:58:48 35° SSW 23:01:36 83° W 23:07:45 10° N
Cosmos 1844 Rocket 4.5 22:57:45 10° WSW 23:02:41 30° NW 23:07:39 10° N
Timation 2 Rocket 3.8 22:57:37 10° NNW 23:03:39 82° WSW 23:05:20 50° SSE
Cosmos 1812 3.6 23:01:43 10° N 23:04:51 40° NE 23:04:51 40° NE
Cosmos 2082 Rocket 2.3 23:02:41 10° NNW 23:08:23 67° ENE 23:09:37 52° ESE
COSMOS 2487 4.2 23:10:47 10° NW 23:13:44 26° W 23:13:44 26° W
Cosmos 1741 Rocket 4.0 23:08:46 10° NNW 23:13:59 70° WSW 23:14:51 58° SSW
IGS 5A 3.9 23:17:59 53° WSW 23:18:05 54° W 23:22:11 10° NNW
Cosmos 2297 3.7 23:16:56 42° SSW 23:18:58 84° WNW 23:24:44 10° NNE
DNEPR-1 R/B 3.8 23:15:05 10° NW 23:20:24 68° WSW 23:20:38 67° SW
APEX 3.8 23:22:47 56° W 23:23:10 59° WNW 23:27:59 10° NNE
Cosmos 1339 Rocket 4.4 23:17:45 10° N 23:23:55 90° W 23:25:21 56° S
Cosmos 1821 Rocket 4.4 23:31:30 43° ESE 23:32:04 44° E 23:37:57 10° NNE
Cosmos 1331 Rocket 4.2 23:33:49 55° E 23:33:49 55° E 23:38:24 10° NNE
USA 229 DEB 3.7 23:26:38 10° NNW 23:33:47 80° NE 23:35:48 51° SE
USA 229 3.8 23:26:44 10° NNW 23:33:53 79° NE 23:35:55 51° SE
Cosmos 1110 Rocket 3.9 23:36:09 70° E 23:36:09 70° E 23:41:14 10° NNE
CZ-4B R/B 4.2 23:38:42 11° NE 23:38:42 11° NE 23:38:57 10° NE
H-2A R/B 3.3 23:36:42 29° SW 23:38:05 33° W 23:42:56 10° NNW
Cosmos 1536 Rocket 4.3 23:34:42 10° NNW 23:38:59 45° W 23:39:02 45° W
Okean 1 3.9 23:35:24 10° N 23:38:43 57° NNW 23:38:43 57° NNW
Iridium 4 Rocket 3.8 23:43:26 10° N 23:49:12 63° E 23:49:35 61° ESE
Cosmos 1934 Rocket 4.1 23:52:21 52° E 23:52:35 53° E 23:58:27 10° NNE
